Location: Earls Croome
(52.0667°N, 2.2000°W)
Time: 12:47:25
(UTC+00:00)

Lacrosse 5 rocket - Pass Details

Date: 17 November 2019
Orbit: 461 x 637 km, 57.0° (Epoch: 13 December)

Event Time Altitude Azimuth Distance (km) Brightness Sun altitude
Exits shadow 06:46:37 - 296° (WNW) 1,693 3.1 -7.0°
Reaches altitude 10° 06:46:47 10° 296° (WNW) 1,625 3.0 -7.0°
Maximum altitude 06:50:23 68° 213° (SSW) 502 1.1 -6.5°
Drops below altitude 10° 06:53:57 10° 131° (SE) 1,609 5.2 -6.0°
Sets 06:56:05 0° 128° (SE) 2,490 6.6 -5.7°
